Regional Weather Roundup
Issued by NWS

Home | Current Version | Previous Version | Graphics & Text | Print | Product List | Glossary On
Versions: 1 2 3 4 5 6 7 8 9 10 11 12 13 14 15 16 17 18 19 20 21 22 23 24 25 26 27 28 29 30 31 32 33 34 35 36 37 38 39 40 41 42 43 44 45 46 47 48 49 50
000
ASUS43 KLMK 180102
RWRKY
KENTUCKY REGIONAL WEATHER ROUNDUP
NATIONAL WEATHER SERVICE LOUISVILLE KY
900 PM EDT THU AUG 17 2017

NOTE "FAIR" INDICATES FEW OR NO CLOUDS BELOW 12,000 FEET
WITH NO SIGNIFICANT WEATHER AND/OR OBSTRUCTIONS TO VISIBILITY.

KYZ001>023-026-027-061>063-070>075-180200-
WESTERN AND SOUTH CENTRAL KENTUCKY

CITY           SKY/WX    TMP DP  RH WIND       PRES   REMARKS
PADUCAH        PTCLDY    79  71  76 SW5       29.89R
HENDERSON      CLEAR     77  72  84 SW6       29.87S
OWENSBORO      CLOUDY    78  75  90 S5        29.88R
HOPKINSVILLE   DRIZZLE   79  73  83 SW10      29.91R
BOWLING GREEN  MOCLDY    84  75  74 S6        29.90F HX  92
GLASGOW        CLOUDY    80  71  75 SW5       29.92S
$$

KYZ024-025-028>034-038-045-046-053-180200-
NORTH CENTRAL KENTUCKY

CITY           SKY/WX    TMP DP  RH WIND       PRES   REMARKS
LOUISVILLE/SDF MOCLDY    76  74  93 S8        29.88S
LOUISVILLE/LOU CLOUDY    75  75 100 S6        29.89F
FORT KNOX      MOCLDY    76  74  92 S5        29.88F
$$

KYZ035>037-039>044-047>052-055>060-089>105-180200-
NORTHEAST KENTUCKY

CITY           SKY/WX    TMP DP  RH WIND       PRES   REMARKS
LEXINGTON      LGT RAIN  74  71  91 S6        29.93R FOG
COVINGTON      HVY RAIN  76  76 100 SW9       29.89R FOG
FRANKFORT      LGT RAIN  75  71  87 CALM      29.90F
$$

KYZ054-064>069-076>088-106>120-180200-
SOUTHEAST KENTUCKY

CITY           SKY/WX    TMP DP  RH WIND       PRES   REMARKS
JACKSON        CLEAR     80  71  74 CALM      29.97R
LONDON         CLEAR     81  70  69 S6        29.96F
SOMERSET       NOT AVBL
MIDDLESBORO    CLEAR     79  75  89 CALM      29.99S
MONTICELLO     CLEAR     79  72  79 W13       29.97F
$$





USA.gov is the U.S. government's official web portal to all federal, state and local government web resources and services.